#Datum;Uhrzeit;WR;Pac;DaySum;Status;WR;Pac;DaySum;Status;Pdc1;Udc;Temp;WR;Pac;DaySum;Status;Pdc1;Udc;Temp;WR;Pac;DaySum;Status;Pdc1;Udc;Temp;WR;Pac;DaySum;Status;Pdc1;Pdc2;Udc1;Udc2;Temp;WR;Pac;DaySum;Status;Pdc1;Pdc2;Udc1;Udc2;Temp;WR;Pac;DaySum;Status;Pdc1;Udc;Temp;WR;Pac;DaySum;Status;Pdc1;Udc;Temp;WR;Pac;DaySum;Status;Pdc1;Udc;Temp
29.12.17;23:55:00;1;278;14270;0;2;0;13227;0;0;0;0;3;0;8648;0;0;0;0;4;0;7217;0;0;0;0;5;0;24505;0;0;0;0;0;0;6;0;21139;0;0;0;0;0;0;7;0;17160;0;0;0;0;8;0;20165;0;0;0;0;9;0;10459;0;0;0;0
29.12.17;23:50:00;1;620;14246;0;2;0;13227;0;0;0;0;3;0;8648;0;0;0;0;4;0;7217;0;0;0;0;5;0;24505;0;0;0;0;0;0;6;0;21139;0;0;0;0;0;0;7;0;17160;0;0;0;0;8;0;20165;0;0;0;0;9;0;10459;0;0;0;0
29.12.17;23:45:00;1;780;14187;0;2;0;13227;0;0;0;0;3;0;8648;0;0;0;0;4;0;7217;0;0;0;0;5;0;24505;0;0;0;0;0;0;6;0;21139;0;0;0;0;0;0;7;0;17160;0;0;0;0;8;0;20165;0;0;0;0;9;0;10459;0;0;0;0
29.12.17;23:40:00;1;442;14147;0;2;0;13227;0;0;0;0;3;0;8648;0;0;0;0;4;0;7217;0;0;0;0;5;0;24505;0;0;0;0;0;0;6;0;21139;0;0;0;0;0;0;7;0;17160;0;0;0;0;8;0;20165;0;0;0;0;9;0;10459;0;0;0;0
29.12.17;23:35:00;1;474;14110;0;2;0;13227;0;0;0;0;3;0;8648;0;0;0;0;4;0;7217;0;0;0;0;5;0;24505;0;0;0;0;0;0;6;0;21139;0;0;0;0;0;0;7;0;17160;0;0;0;0;8;0;20165;0;0;0;0;9;0;10459;0;0;0;0
29.12.17;23:30:00;1;1099;14054;0;2;0;13227;0;0;0;0;3;0;8648;0;0;0;0;4;0;7217;0;0;0;0;5;0;24505;0;0;0;0;0;0;6;0;21139;0;0;0;0;0;0;7;0;17160;0;0;0;0;8;0;20165;0;0;0;0;9;0;10459;0;0;0;0
29.12.17;23:25:00;1;3143;13937;0;2;0;13227;0;0;0;0;3;0;8648;0;0;0;0;4;0;7217;0;0;0;0;5;0;24505;0;0;0;0;0;0;6;0;21139;0;0;0;0;0;0;7;0;17160;0;0;0;0;8;0;20165;0;0;0;0;9;0;10459;0;0;0;0
29.12.17;23:20:00;1;513;13743;0;2;0;13227;0;0;0;0;3;0;8648;0;0;0;0;4;0;7217;0;0;0;0;5;0;24505;0;0;0;0;0;0;6;0;21139;0;0;0;0;0;0;7;0;17160;0;0;0;0;8;0;20165;0;0;0;0;9;0;10459;0;0;0;0
29.12.17;23:15:00;1;868;13690;0;2;0;13227;0;0;0;0;3;0;8648;0;0;0;0;4;0;7217;0;0;0;0;5;0;24505;0;0;0;0;0;0;6;0;21139;0;0;0;0;0;0;7;0;17160;0;0;0;0;8;0;20165;0;0;0;0;9;0;10459;0;0;0;0
29.12.17;23:10:00;1;560;13628;0;2;0;13227;0;0;0;0;3;0;8648;0;0;0;0;4;0;7217;0;0;0;0;5;0;24505;0;0;0;0;0;0;6;0;21139;0;0;0;0;0;0;7;0;17160;0;0;0;0;8;0;20165;0;0;0;0;9;0;10459;0;0;0;0
29.12.17;23:05:00;1;401;13586;0;2;0;13227;0;0;0;0;3;0;8648;0;0;0;0;4;0;7217;0;0;0;0;5;0;24505;0;0;0;0;0;0;6;0;21139;0;0;0;0;0;0;7;0;17160;0;0;0;0;8;0;20165;0;0;0;0;9;0;10459;0;0;0;0
29.12.17;23:00:00;1;1020;13550;0;2;0;13227;0;0;0;0;3;0;8648;0;0;0;0;4;0;7217;0;0;0;0;5;0;24505;0;0;0;0;0;0;6;0;21139;0;0;0;0;0;0;7;0;17160;0;0;0;0;8;0;20165;0;0;0;0;9;0;10459;0;0;0;0
29.12.17;22:55:00;1;401;13489;0;2;0;13227;0;0;0;0;3;0;8648;0;0;0;0;4;0;7217;0;0;0;0;5;0;24505;2;0;0;0;0;0;6;0;21139;2;0;0;0;0;0;7;0;17160;0;0;0;0;8;0;20165;0;0;0;0;9;0;10459;0;0;0;0
29.12.17;22:50:00;1;398;13455;0;2;0;13227;0;0;0;0;3;0;8648;0;0;0;0;4;0;7217;0;0;0;0;5;0;24505;2;0;0;0;0;0;6;0;21139;2;0;0;0;0;0;7;0;17160;0;0;0;0;8;0;20165;0;0;0;0;9;0;10459;0;0;0;0
29.12.17;22:45:00;1;745;13422;0;2;0;13227;0;0;0;0;3;0;8648;0;0;0;0;4;0;7217;0;0;0;0;5;0;24505;2;0;0;0;0;0;6;0;21139;2;0;0;0;0;0;7;0;17160;0;0;0;0;8;0;20165;0;0;0;0;9;0;10459;0;0;0;0
29.12.17;22:40:00;1;404;13358;0;2;0;13227;0;0;0;0;3;0;8648;0;0;0;0;4;0;7217;0;0;0;0;5;0;24505;2;0;0;0;0;0;6;0;21139;2;0;0;0;0;0;7;0;17160;0;0;0;0;8;0;20165;0;0;0;0;9;0;10459;0;0;0;0
29.12.17;22:35:00;1;415;13324;0;2;0;13227;0;0;0;0;3;0;8648;0;0;0;0;4;0;7217;0;0;0;0;5;0;24505;2;0;0;0;0;0;6;0;21139;2;0;0;0;0;0;7;0;17160;0;0;0;0;8;0;20165;0;0;0;0;9;0;10459;0;0;0;0
29.12.17;22:30:00;1;860;13288;0;2;0;13227;0;0;0;0;3;0;8648;0;0;0;0;4;0;7217;0;0;0;0;5;0;24505;2;0;0;0;0;0;6;0;21139;2;0;0;0;0;0;7;0;17160;0;0;0;0;8;0;20165;0;0;0;0;9;0;10459;0;0;0;0
29.12.17;22:25:00;1;455;13223;0;2;0;13227;0;0;0;0;3;0;8648;0;0;0;0;4;0;7217;0;0;0;0;5;0;24505;2;0;0;0;0;0;6;0;21139;2;0;0;0;0;0;7;0;17160;0;0;0;0;8;0;20165;0;0;0;0;9;0;10459;0;0;0;0
29.12.17;22:20:00;1;456;13186;0;2;0;13227;0;0;0;0;3;0;8648;0;0;0;0;4;0;7217;0;0;0;0;5;0;24505;2;0;0;0;0;0;6;0;21139;2;0;0;0;0;0;7;0;17160;0;0;0;0;8;0;20165;0;0;0;0;9;0;10459;0;0;0;0
29.12.17;22:15:00;1;655;13149;0;2;0;13227;0;0;0;0;3;0;8648;0;0;0;0;4;0;7217;0;0;0;0;5;0;24505;2;0;0;0;0;0;6;0;21139;2;0;0;0;0;0;7;0;17160;0;0;0;0;8;0;20165;0;0;0;0;9;0;10459;0;0;0;0
29.12.17;22:10:00;1;428;13080;0;2;0;13227;0;0;0;0;3;0;8648;0;0;0;0;4;0;7217;0;0;0;0;5;0;24505;2;0;0;0;0;0;6;0;21139;2;0;0;0;0;0;7;0;17160;0;0;0;0;8;0;20165;0;0;0;0;9;0;10459;0;0;0;0
29.12.17;22:05:00;1;428;13044;0;2;0;13227;0;0;0;0;3;0;8648;0;0;0;0;4;0;7217;0;0;0;0;5;0;24505;2;0;0;0;0;0;6;0;21139;2;0;0;0;0;0;7;0;17160;0;0;0;0;8;0;20165;0;0;0;0;9;0;10459;0;0;0;0
29.12.17;22:00:00;1;839;13009;0;2;0;13227;0;0;0;0;3;0;8648;0;0;0;0;4;0;7217;0;0;0;0;5;0;24505;2;0;0;0;0;0;6;0;21139;2;0;0;0;0;0;7;0;17160;0;0;0;0;8;0;20165;0;0;0;0;9;0;10459;0;0;0;0
29.12.17;21:55:00;1;2315;12942;0;2;0;13227;0;0;0;0;3;0;8648;0;0;0;0;4;0;7217;0;0;0;0;5;0;24505;2;0;0;0;0;0;6;0;21139;2;0;0;0;0;0;7;0;17160;0;0;0;0;8;0;20165;0;0;0;0;9;0;10459;0;0;0;0
29.12.17;21:50:00;1;1794;12743;0;2;0;13227;0;0;0;0;3;0;8648;0;0;0;0;4;0;7217;0;0;0;0;5;0;24505;2;0;0;0;0;0;6;0;21139;2;0;0;0;0;0;7;0;17160;0;0;0;0;8;0;20165;0;0;0;0;9;0;10459;0;0;0;0
29.12.17;21:45:00;1;627;12644;0;2;0;13227;0;0;0;0;3;0;8648;0;0;0;0;4;0;7217;0;0;0;0;5;0;24505;2;0;0;0;0;0;6;0;21139;2;0;0;0;0;0;7;0;17160;0;0;0;0;8;0;20165;0;0;0;0;9;0;10459;0;0;0;0
29.12.17;21:40:00;1;450;12577;0;2;0;13227;0;0;0;0;3;0;8648;0;0;0;0;4;0;7217;0;0;0;0;5;0;24505;2;0;0;0;0;0;6;0;21139;2;0;0;0;0;0;7;0;17160;0;0;0;0;8;0;20165;0;0;0;0;9;0;10459;0;0;0;0
29.12.17;21:35:00;1;471;12539;0;2;0;13227;0;0;0;0;3;0;8648;0;0;0;0;4;0;7217;0;0;0;0;5;0;24505;2;0;0;0;0;0;6;0;21139;2;0;0;0;0;0;7;0;17160;0;0;0;0;8;0;20165;0;0;0;0;9;0;10459;0;0;0;0
29.12.17;21:30:00;1;882;12500;0;2;0;13227;0;0;0;0;3;0;8648;0;0;0;0;4;0;7217;0;0;0;0;5;0;24505;2;0;0;0;0;0;6;0;21139;2;0;0;0;0;0;7;0;17160;0;0;0;0;8;0;20165;0;0;0;0;9;0;10459;0;0;0;0
29.12.17;21:25:00;1;370;12432;0;2;0;13227;0;0;0;0;3;0;8648;0;0;0;0;4;0;7217;0;0;0;0;5;0;24505;2;0;0;0;0;0;6;0;21139;2;0;0;0;0;0;7;0;17160;0;0;0;0;8;0;20165;0;0;0;0;9;0;10459;0;0;0;0
29.12.17;21:20:00;1;364;12400;0;2;0;13227;0;0;0;0;3;0;8648;0;0;0;0;4;0;7217;0;0;0;0;5;0;24505;2;0;0;0;0;0;6;0;21139;2;0;0;0;0;0;7;0;17160;0;0;0;0;8;0;20165;0;0;0;0;9;0;10459;0;0;0;0
29.12.17;21:15:00;1;505;12370;0;2;0;13227;0;0;0;0;3;0;8648;0;0;0;0;4;0;7217;0;0;0;0;5;0;24505;2;0;0;0;0;0;6;0;21139;2;0;0;0;0;0;7;0;17160;0;0;0;0;8;0;20165;0;0;0;0;9;0;10459;0;0;0;0
29.12.17;21:10:00;1;314;12312;0;2;0;13227;0;0;0;0;3;0;8648;0;0;0;0;4;0;7217;0;0;0;0;5;0;24505;2;0;0;0;0;0;6;0;21139;2;0;0;0;0;0;7;0;17160;0;0;0;0;8;0;20165;0;0;0;0;9;0;10459;0;0;0;0
29.12.17;21:05:00;1;254;12287;0;2;0;13227;0;0;0;0;3;0;8648;0;0;0;0;4;0;7217;0;0;0;0;5;0;24505;2;0;0;0;0;0;6;0;21139;2;0;0;0;0;0;7;0;17160;0;0;0;0;8;0;20165;0;0;0;0;9;0;10459;0;0;0;0
29.12.17;21:00:00;1;660;12266;0;2;0;13227;0;0;0;0;3;0;8648;0;0;0;0;4;0;7217;0;0;0;0;5;0;24505;2;0;0;0;0;0;6;0;21139;2;0;0;0;0;0;7;0;17160;0;0;0;0;8;0;20165;0;0;0;0;9;0;10459;0;0;0;0
29.12.17;20:55:00;1;254;12215;0;2;0;13227;0;0;0;0;3;0;8648;0;0;0;0;4;0;7217;0;0;0;0;5;0;24505;2;0;0;0;0;0;6;0;21139;2;0;0;0;0;0;7;0;17160;0;0;0;0;8;0;20165;0;0;0;0;9;0;10459;0;0;0;0
29.12.17;20:50:00;1;253;12194;0;2;0;13227;0;0;0;0;3;0;8648;0;0;0;0;4;0;7217;0;0;0;0;5;0;24505;2;0;0;0;0;0;6;0;21139;2;0;0;0;0;0;7;0;17160;0;0;0;0;8;0;20165;0;0;0;0;9;0;10459;0;0;0;0
29.12.17;20:45:00;1;456;12172;0;2;0;13227;0;0;0;0;3;0;8648;0;0;0;0;4;0;7217;0;0;0;0;5;0;24505;2;0;0;0;0;0;6;0;21139;2;0;0;0;0;0;7;0;17160;0;0;0;0;8;0;20165;0;0;0;0;9;0;10459;0;0;0;0
29.12.17;20:40:00;1;252;12121;0;2;0;13227;0;0;0;0;3;0;8648;0;0;0;0;4;0;7217;0;0;0;0;5;0;24505;2;0;0;0;0;0;6;0;21139;2;0;0;0;0;0;7;0;17160;0;0;0;0;8;0;20165;0;0;0;0;9;0;10459;0;0;0;0
29.12.17;20:35:00;1;269;12100;0;2;0;13227;0;0;0;0;3;0;8648;0;0;0;0;4;0;7217;0;0;0;0;5;0;24505;2;0;0;0;0;0;6;0;21139;2;0;0;0;0;0;7;0;17160;0;0;0;0;8;0;20165;0;0;0;0;9;0;10459;0;0;0;0
29.12.17;20:30:00;1;695;12077;0;2;0;13227;0;0;0;0;3;0;8648;0;0;0;0;4;0;7217;0;0;0;0;5;0;24505;2;0;0;0;0;0;6;0;21139;2;0;0;0;0;0;7;0;17160;0;0;0;0;8;0;20165;0;0;0;0;9;0;10459;0;0;0;0
29.12.17;20:25:00;1;299;12023;0;2;0;13227;0;0;0;0;3;0;8648;0;0;0;0;4;0;7217;0;0;0;0;5;0;24505;2;0;0;0;0;0;6;0;21139;2;0;0;0;0;0;7;0;17160;0;0;0;0;8;0;20165;0;0;0;0;9;0;10459;0;0;0;0
29.12.17;20:20:00;1;272;11998;0;2;0;13227;0;0;0;0;3;0;8648;0;0;0;0;4;0;7217;0;0;0;0;5;0;24505;2;0;0;0;0;0;6;0;21139;2;0;0;0;0;0;7;0;17160;0;0;0;0;8;0;20165;0;0;0;0;9;0;10459;0;0;0;0
29.12.17;20:15:00;1;2615;11975;0;2;0;13227;0;0;0;0;3;0;8648;0;0;0;0;4;0;7217;0;0;0;0;5;0;24505;2;0;0;0;0;0;6;0;21139;2;0;0;0;0;0;7;0;17160;0;0;0;0;8;0;20165;0;0;0;0;9;0;10459;0;0;0;0
29.12.17;20:10:00;1;686;11758;0;2;0;13227;0;0;0;0;3;0;8648;0;0;0;0;4;0;7217;0;0;0;0;5;0;24505;2;0;0;0;0;0;6;0;21139;2;0;0;0;0;0;7;0;17160;0;0;0;0;8;0;20165;0;0;0;0;9;0;10459;0;0;0;0
29.12.17;20:05:00;1;256;11686;0;2;0;13227;0;0;0;0;3;0;8648;0;0;0;0;4;0;7217;0;0;0;0;5;0;24505;2;0;0;0;0;0;6;0;21139;2;0;0;0;0;0;7;0;17160;0;0;0;0;8;0;20165;0;0;0;0;9;0;10459;0;0;0;0
29.12.17;20:00:00;1;663;11665;0;2;0;13227;0;0;0;0;3;0;8648;0;0;0;0;4;0;7217;0;0;0;0;5;0;24505;2;0;0;0;0;0;6;0;21139;2;0;0;0;0;0;7;0;17160;0;0;0;0;8;0;20165;0;0;0;0;9;0;10459;0;0;0;0
29.12.17;19:55:00;1;255;11613;0;2;0;13227;0;0;0;0;3;0;8648;0;0;0;0;4;0;7217;0;0;0;0;5;0;24505;2;0;0;0;0;0;6;0;21139;2;0;0;0;0;0;7;0;17160;0;0;0;0;8;0;20165;0;0;0;0;9;0;10459;0;0;0;0
29.12.17;19:50:00;1;258;11592;0;2;0;13227;0;0;0;0;3;0;8648;0;0;0;0;4;0;7217;0;0;0;0;5;0;24505;2;0;0;0;0;0;6;0;21139;2;0;0;0;0;0;7;0;17160;0;0;0;0;8;0;20165;0;0;0;0;9;0;10459;0;0;0;0
29.12.17;19:45:00;1;966;11570;0;2;0;13227;0;0;0;0;3;0;8648;0;0;0;0;4;0;7217;0;0;0;0;5;0;24505;2;0;0;0;0;0;6;0;21139;2;0;0;0;0;0;7;0;17160;0;0;0;0;8;0;20165;0;0;0;0;9;0;10459;0;0;0;0
29.12.17;19:40:00;1;316;11519;0;2;0;13227;0;0;0;0;3;0;8648;0;0;0;0;4;0;7217;0;0;0;0;5;0;24505;2;0;0;0;0;0;6;0;21139;2;0;0;0;0;0;7;0;17160;0;0;0;0;8;0;20165;0;0;0;0;9;0;10459;0;0;0;0
29.12.17;19:35:00;1;364;11492;0;2;0;13227;0;0;0;0;3;0;8648;0;0;0;0;4;0;7217;0;0;0;0;5;0;24505;2;0;0;0;0;0;6;0;21139;2;0;0;0;0;0;7;0;17160;0;0;0;0;8;0;20165;0;0;0;0;9;0;10459;0;0;0;0
29.12.17;19:30:00;1;582;11462;0;2;0;13227;0;0;0;0;3;0;8648;0;0;0;0;4;0;7217;0;0;0;0;5;0;24505;2;0;0;0;0;0;6;0;21139;2;0;0;0;0;0;7;0;17160;0;0;0;0;8;0;20165;0;0;0;0;9;0;10459;0;0;0;0
29.12.17;19:25:00;1;1550;11401;0;2;0;13227;0;0;0;0;3;0;8648;0;0;0;0;4;0;7217;0;0;0;0;5;0;24505;2;0;0;0;0;0;6;0;21139;2;0;0;0;0;0;7;0;17160;0;0;0;0;8;0;20165;0;0;0;0;9;0;10459;0;0;0;0
29.12.17;19:20:00;1;2230;11274;0;2;0;13227;0;0;0;0;3;0;8648;0;0;0;0;4;0;7217;0;0;0;0;5;0;24505;2;0;0;0;0;0;6;0;21139;2;0;0;0;0;0;7;0;17160;0;0;0;0;8;0;20165;0;0;0;0;9;0;10459;0;0;0;0
29.12.17;19:15:00;1;2795;11087;0;2;0;13227;0;0;0;0;3;0;8648;0;0;0;0;4;0;7217;0;0;0;0;5;0;24505;2;0;0;0;0;0;6;0;21139;2;0;0;0;0;0;7;0;17160;0;0;0;0;8;0;20165;0;0;0;0;9;0;10459;0;0;0;0
29.12.17;19:10:00;1;1138;10867;0;2;0;13227;0;0;0;0;3;0;8648;0;0;0;0;4;0;7217;0;0;0;0;5;0;24505;2;0;0;0;0;0;6;0;21139;2;0;0;0;0;0;7;0;17160;0;0;0;0;8;0;20165;0;0;0;0;9;0;10459;0;0;0;0
29.12.17;19:05:00;1;1941;10791;0;2;0;13227;0;0;0;0;3;0;8648;0;0;0;0;4;0;7217;0;0;0;0;5;0;24505;2;0;0;0;0;0;6;0;21139;2;0;0;0;0;0;7;0;17160;0;0;0;0;8;0;20165;0;0;0;0;9;0;10459;0;0;0;0
29.12.17;19:00:00;1;510;10664;0;2;0;13227;0;0;0;0;3;0;8648;0;0;0;0;4;0;7217;0;0;0;0;5;0;24505;2;0;0;0;0;0;6;0;21139;2;0;0;0;0;0;7;0;17160;0;0;0;0;8;0;20165;0;0;0;0;9;0;10459;0;0;0;0
29.12.17;18:55:00;1;335;10607;0;2;0;13227;0;0;0;0;3;0;8648;0;0;0;0;4;0;7217;0;0;0;0;5;0;24505;2;0;0;0;0;0;6;0;21139;2;0;0;0;0;0;7;0;17160;0;0;0;0;8;0;20165;0;0;0;0;9;0;10459;0;0;0;0
29.12.17;18:50:00;1;1977;10578;0;2;0;13227;0;0;0;0;3;0;8648;0;0;0;0;4;0;7217;0;0;0;0;5;0;24505;2;0;0;0;0;0;6;0;21139;2;0;0;0;0;0;7;0;17160;0;0;0;0;8;0;20165;0;0;0;0;9;0;10459;0;0;0;0
29.12.17;18:45:00;1;1164;10408;0;2;0;13227;0;0;0;0;3;0;8648;0;0;0;0;4;0;7217;0;0;0;0;5;0;24505;2;0;0;0;0;0;6;0;21139;2;0;0;0;0;0;7;0;17160;0;0;0;0;8;0;20165;0;0;0;0;9;0;10459;0;0;0;0
29.12.17;18:40:00;1;2227;10272;0;2;0;13227;0;0;0;0;3;0;8648;0;0;0;0;4;0;7217;0;0;0;0;5;0;24505;2;0;0;0;0;0;6;0;21139;2;0;0;0;0;0;7;0;17160;0;0;0;0;8;0;20165;0;0;0;0;9;0;10459;0;0;0;0
29.12.17;18:35:00;1;1221;10095;0;2;0;13227;0;0;0;0;3;0;8648;0;0;0;0;4;0;7217;0;0;0;0;5;0;24505;2;0;0;0;0;0;6;0;21139;2;0;0;0;0;0;7;0;17160;0;0;0;0;8;0;20165;0;0;0;0;9;0;10459;0;0;0;0
29.12.17;18:30:00;1;2266;9979;0;2;0;13227;0;0;0;0;3;0;8648;0;0;0;0;4;0;7217;0;0;0;0;5;0;24505;2;0;0;0;0;0;6;0;21139;2;0;0;0;0;0;7;0;17160;0;0;0;0;8;0;20165;0;0;0;0;9;0;10459;0;0;0;0
29.12.17;18:25:00;1;2468;9791;0;2;0;13227;0;0;0;0;3;0;8648;0;0;0;0;4;0;7217;0;0;0;0;5;0;24505;2;0;0;0;0;0;6;0;21139;2;0;0;0;0;0;7;0;17160;0;0;0;0;8;0;20165;0;0;0;0;9;0;10459;0;0;0;0
29.12.17;18:20:00;1;730;9610;0;2;0;13227;0;0;0;0;3;0;8648;0;0;0;0;4;0;7217;0;0;0;0;5;0;24505;2;0;0;0;0;0;6;0;21139;2;0;0;0;0;0;7;0;17160;0;0;0;0;8;0;20165;0;0;0;0;9;0;10459;0;0;0;0
29.12.17;18:15:00;1;2797;9520;0;2;0;13227;0;0;0;0;3;0;8648;0;0;0;0;4;0;7217;0;0;0;0;5;0;24505;2;0;0;0;0;0;6;0;21139;2;0;0;0;0;0;7;0;17160;0;0;0;0;8;0;20165;0;0;0;0;9;0;10459;0;0;0;0
29.12.17;18:10:00;1;638;9350;0;2;0;13227;0;0;0;0;3;0;8648;0;0;0;0;4;0;7217;0;0;0;0;5;0;24505;2;0;0;0;0;0;6;0;21139;2;0;0;0;0;0;7;0;17160;0;0;0;0;8;0;20165;0;0;0;0;9;0;10459;0;0;0;0
29.12.17;18:05:00;1;233;9300;0;2;0;13227;0;0;0;0;3;0;8648;0;0;0;0;4;0;7217;0;0;0;0;5;0;24505;2;0;0;0;0;0;6;0;21139;2;0;0;0;0;0;7;0;17160;0;0;0;0;8;0;20165;0;0;0;0;9;0;10459;0;0;0;0
29.12.17;18:00:00;1;258;9280;0;2;0;13227;0;0;0;0;3;0;8648;0;0;0;0;4;0;7217;0;0;0;0;5;0;24505;2;0;0;0;0;0;6;0;21139;2;0;0;0;0;0;7;0;17160;0;0;0;0;8;0;20165;0;0;0;0;9;0;10459;0;0;0;0
29.12.17;17:55:00;1;1054;9258;0;2;0;13227;0;0;0;0;3;0;8648;0;0;0;0;4;0;7217;0;0;0;0;5;0;24505;2;0;0;0;0;0;6;0;21139;2;0;0;0;0;0;7;0;17160;0;0;0;0;8;0;20165;0;0;0;0;9;0;10459;0;0;0;0
29.12.17;17:50:00;1;457;9190;0;2;0;13227;0;0;0;0;3;0;8648;0;0;0;0;4;0;7217;0;0;0;0;5;0;24505;2;0;0;0;0;0;6;0;21139;2;0;0;0;0;0;7;0;17160;0;0;0;0;8;0;20165;0;0;0;0;9;0;10459;0;0;0;0
29.12.17;17:45:00;1;437;9152;0;2;0;13227;0;0;0;0;3;0;8648;0;0;0;0;4;0;7217;0;0;0;0;5;0;24505;2;0;0;0;0;0;6;0;21139;2;0;0;0;0;0;7;0;17160;0;0;0;0;8;0;20165;0;0;0;0;9;0;10459;0;0;0;0
29.12.17;17:40:00;1;827;9115;0;2;0;13227;0;0;0;0;3;0;8648;0;0;0;0;4;0;7217;0;0;0;0;5;0;24505;2;0;0;0;0;0;6;0;21139;2;0;0;0;0;0;7;0;17160;0;0;0;0;8;0;20165;0;0;0;0;9;0;10459;0;0;0;0
29.12.17;17:35:00;1;498;9050;0;2;0;13227;0;0;0;0;3;0;8648;0;0;0;0;4;0;7217;0;0;0;0;5;0;24505;2;0;0;0;0;0;6;0;21139;2;0;0;0;0;0;7;0;17160;0;0;0;0;8;0;20165;0;0;0;0;9;0;10459;0;0;0;0
29.12.17;17:30:00;1;507;9007;0;2;0;13227;0;0;0;0;3;0;8648;0;0;0;0;4;0;7217;0;0;0;0;5;0;24505;2;0;0;0;0;0;6;0;21139;2;0;0;0;0;0;7;0;17160;0;0;0;0;8;0;20165;0;0;0;0;9;0;10459;0;0;0;0
29.12.17;17:25:00;1;864;8965;0;2;0;13227;0;0;0;0;3;0;8648;0;0;0;0;4;0;7217;0;0;0;0;5;0;24505;2;0;0;0;0;0;6;0;21139;2;0;0;0;0;0;7;0;17160;0;0;0;0;8;0;20165;0;0;0;0;9;0;10459;0;0;0;0
29.12.17;17:20:00;1;437;8893;0;2;0;13227;0;0;0;0;3;0;8648;0;0;0;0;4;0;7217;0;0;0;0;5;0;24505;2;0;0;0;0;0;6;0;21139;2;0;0;0;0;0;7;0;17160;0;0;0;0;8;0;20165;0;0;0;0;9;0;10459;0;0;0;0
29.12.17;17:15:00;1;386;8857;0;2;0;13227;0;0;0;0;3;0;8648;0;0;0;0;4;0;7217;0;0;0;0;5;0;24505;2;0;0;0;0;0;6;0;21139;2;0;0;0;0;0;7;0;17160;0;0;0;0;8;0;20165;0;0;0;0;9;0;10459;0;0;0;0
29.12.17;17:10:00;1;396;8825;0;2;0;13227;0;0;0;0;3;0;8648;0;0;0;0;4;0;7217;0;0;0;0;5;0;24505;2;0;0;0;0;0;6;0;21139;2;0;0;0;0;0;7;0;17160;0;0;0;0;8;0;20165;0;0;0;0;9;0;10459;0;0;0;0
29.12.17;17:05:00;1;356;8759;0;2;0;13227;0;0;0;0;3;0;8648;0;0;0;0;4;0;7217;0;0;0;0;5;0;24505;2;0;0;0;0;0;6;0;21139;2;0;0;0;0;0;7;0;17160;0;0;0;0;8;0;20165;0;0;0;0;9;0;10459;0;0;0;0
29.12.17;17:00:00;1;322;8729;0;2;0;13227;0;0;0;0;3;0;8648;0;0;0;0;4;0;7217;0;0;0;0;5;0;24505;2;0;0;0;0;0;6;0;21139;2;0;0;0;0;0;7;0;17160;0;0;0;0;8;0;20165;0;0;0;0;9;0;10459;0;0;0;0
29.12.17;16:55:00;1;439;8702;0;2;0;13227;0;0;0;0;3;0;8648;0;0;0;0;4;0;7217;0;0;0;0;5;0;24505;2;0;0;0;0;0;6;0;21139;2;0;0;0;0;0;7;0;17160;0;0;0;0;8;0;20165;0;0;0;0;9;0;10459;0;0;0;0
29.12.17;16:50:00;1;747;8644;0;2;0;13227;0;0;0;0;3;0;8648;0;0;85;4;4;0;7217;0;0;0;0;5;0;24505;2;0;0;0;0;0;6;0;21139;2;0;0;0;0;0;7;0;17160;0;0;0;0;8;0;20165;0;0;0;0;9;0;10459;0;0;0;0
29.12.17;16:45:00;1;357;8593;0;2;0;13227;6;0;279;12;3;0;8648;6;0;304;15;4;0;7217;0;0;0;0;5;0;24505;2;0;0;0;0;0;6;0;21139;2;0;0;0;0;0;7;0;17160;0;0;0;0;8;0;20165;0;0;0;0;9;0;10459;0;0;0;0
29.12.17;16:40:00;1;358;8564;0;2;0;13227;6;0;325;12;3;0;8648;6;0;387;15;4;0;7217;0;0;62;7;5;0;24505;2;0;0;0;0;0;6;0;21139;2;0;0;0;0;1;7;0;17160;0;0;0;0;8;0;20165;0;0;0;0;9;0;10459;0;0;0;0
29.12.17;16:35:00;1;549;8528;0;2;0;13227;6;0;365;13;3;0;8648;4;3;422;15;4;0;7217;1;0;112;9;5;0;24505;1;0;1;300;298;18;6;0;21139;2;5;2;150;371;16;7;0;17160;0;0;179;11;8;0;20165;0;0;177;10;9;0;10459;0;0;184;7
29.12.17;16:30:00;1;272;8481;0;2;0;13227;6;0;390;13;3;0;8648;3;5;443;16;4;0;7217;1;0;153;9;5;0;24505;26;0;0;413;424;22;6;0;21139;23;2;8;564;180;20;7;0;17160;6;0;332;17;8;0;20165;6;0;330;16;9;0;10459;6;0;335;11
29.12.17;16:25:00;1;275;8458;0;2;0;13227;6;0;406;14;3;1;8648;6;3;493;16;4;0;7217;1;0;191;10;5;0;24505;23;0;0;430;654;23;6;0;21139;23;5;3;181;577;21;7;0;17160;6;0;399;17;8;0;20165;6;0;399;17;9;0;10459;6;0;403;12
29.12.17;16:20:00;1;553;8435;0;2;0;13227;6;5;406;15;3;1;8648;6;5;504;16;4;0;7217;1;0;211;10;5;10;24504;4;0;0;428;677;23;6;0;21139;23;5;4;441;595;21;7;0;17160;6;0;448;18;8;0;20165;6;2;432;17;9;0;10459;6;1;449;12
29.12.17;16:15:00;1;311;8383;0;2;2;13227;6;7;416;15;3;2;8648;6;5;523;17;4;0;7217;3;0;225;10;5;73;24504;4;10;11;387;619;24;6;0;21139;8;3;5;496;605;22;7;3;17160;3;5;442;18;8;1;20165;6;1;461;18;9;0;10459;6;3;472;12
29.12.17;16:10:00;1;395;8356;0;2;4;13226;4;11;418;16;3;1;8648;6;7;527;17;4;0;7217;3;0;200;11;5;99;24497;4;25;21;387;619;25;6;42;21139;1;16;13;495;341;23;7;0;17159;6;9;467;19;8;1;20165;4;5;473;18;9;0;10459;6;0;544;13
29.12.17;16:05:00;1;896;8323;0;2;53;13226;4;84;361;17;3;0;8648;6;0;550;18;4;1;7217;3;1;200;11;5;137;24489;4;45;37;387;619;25;6;67;21135;4;31;22;461;274;23;7;22;17159;6;34;442;20;8;12;20165;3;20;464;19;9;2;10459;3;10;519;13
29.12.17;16:00:00;1;394;8260;0;2;93;13221;4;129;377;18;3;18;8648;3;33;538;18;4;33;7217;3;34;198;11;5;182;24478;4;74;64;387;619;25;6;98;21130;4;42;29;461;274;23;7;52;17158;4;95;453;20;8;51;20164;4;91;434;19;9;6;10459;6;10;547;13
29.12.17;15:55:00;1;428;8228;0;2;166;13214;4;204;382;19;3;74;8646;4;112;470;19;4;64;7215;3;66;198;11;5;235;24462;4;103;94;387;619;25;6;142;21121;4;74;69;461;358;23;7;127;17153;4;167;433;21;8;108;20160;4;140;408;20;9;7;10458;6;11;569;14
29.12.17;15:50:00;1;736;8192;0;2;629;13200;4;684;401;20;3;233;8640;4;276;450;20;4;97;7210;3;101;223;12;5;330;24442;4;151;140;387;619;25;6;305;21109;4;132;172;505;575;24;7;366;17142;4;402;387;22;8;143;20151;4;175;392;21;9;10;10458;6;15;567;14
29.12.17;15:45:00;1;505;8124;0;2;1061;13152;4;1132;404;22;3;561;8621;4;613;460;21;4;183;7202;5;190;207;12;5;584;24414;4;287;233;372;698;26;6;589;21083;4;245;376;629;590;24;7;883;17114;4;940;414;22;8;507;20139;4;548;388;21;9;56;10457;6;82;510;15
29.12.17;15:40:00;1;461;8081;0;2;1188;13064;4;1264;401;22;3;639;8575;4;695;454;21;4;225;7187;5;234;207;12;5;1013;24364;4;471;480;364;717;26;6;986;21032;4;503;533;628;607;24;7;1374;17042;4;1447;437;23;8;835;20098;4;885;436;22;9;80;10453;4;109;504;16
29.12.17;15:35:00;1;463;8042;0;2;1367;12964;4;1449;401;23;3;749;8521;4;809;457;22;4;263;7168;5;274;201;12;5;1197;24279;4;610;521;411;728;26;6;982;20949;4;466;494;640;614;24;7;1817;16927;4;1902;475;23;8;1026;20028;4;1086;439;22;9;92;10446;4;120;482;16
29.12.17;15:30:00;1;862;7999;0;2;1481;12851;4;1568;402;24;3;806;8459;4;867;458;22;4;294;7146;5;305;200;12;5;1660;24176;4;810;779;379;721;26;6;1366;20866;4;695;718;628;600;24;7;2113;16778;4;2216;485;24;8;1355;19944;4;1426;409;23;9;89;10439;4;116;382;17
29.12.17;15:25:00;1;463;7935;0;2;1605;12727;4;1697;400;25;3;876;8392;4;940;457;22;4;337;7122;5;350;216;12;5;1948;24035;4;943;913;385;729;27;6;1620;20750;4;827;838;630;595;24;7;2434;16599;4;2559;495;24;8;1816;19829;4;1906;424;23;9;132;10431;4;158;354;18
29.12.17;15:20:00;1;467;7896;0;2;1714;12594;4;1811;404;25;3;938;8319;4;1005;452;23;4;366;7094;5;381;219;13;5;2208;23871;4;1105;1015;409;716;27;6;1778;20614;4;910;906;630;595;25;7;2656;16397;4;2791;492;24;8;2185;19678;4;2288;460;24;9;284;10420;4;316;355;19
29.12.17;15:15:00;1;948;7857;0;2;1898;12451;4;2009;427;26;3;1000;8241;4;1072;465;23;4;375;7063;5;391;218;13;5;2453;23685;4;1269;1106;425;719;27;6;1934;20464;4;983;974;626;590;25;7;2810;16176;4;2941;491;24;8;2551;19495;4;2674;488;24;9;573;10396;4;616;352;20
29.12.17;15:10:00;1;397;7791;0;2;2010;12293;4;2128;432;27;3;1101;8157;4;1178;500;24;4;405;7032;5;421;230;13;5;2697;23480;4;1402;1189;450;722;27;6;2077;20303;4;1068;1061;625;596;25;7;2942;15942;4;3084;497;25;8;2832;19284;4;2967;486;25;9;809;10349;4;859;370;21
29.12.17;15:05:00;1;423;7758;0;2;2114;12125;4;2237;430;27;3;1227;8065;4;1312;516;24;4;446;6998;5;464;220;13;5;2946;23253;4;1562;1294;448;726;28;6;2247;20128;4;1145;1132;627;592;25;7;3114;15697;4;3260;494;25;8;3021;19048;4;3165;493;25;9;1177;10281;4;1245;432;22
29.12.17;15:00:00;1;721;7723;0;2;2209;11950;4;2337;434;28;3;1318;7964;4;1413;548;25;4;474;6961;5;494;224;14;5;3149;23006;4;1679;1372;449;725;28;6;2396;19940;4;1240;1208;627;600;25;7;3249;15439;4;3406;489;25;8;3177;18797;4;3325;487;25;9;1436;10184;4;1517;464;23
29.12.17;14:55:00;1;439;7656;0;2;2313;11766;4;2443;430;28;3;1452;7854;4;1569;539;25;4;511;6922;5;533;224;14;5;3381;22743;4;1813;1485;447;719;28;6;2571;19739;4;1308;1278;629;594;25;7;3397;15168;4;3557;486;26;8;3317;18533;4;3473;489;26;9;1639;10065;4;1733;494;24
29.12.17;14:50:00;1;439;7619;0;2;2379;11573;4;2513;429;29;3;1543;7733;4;1641;550;26;4;535;6879;5;557;218;14;5;3561;22460;4;1916;1563;447;724;28;6;2706;19524;4;1394;1362;630;592;25;7;3497;14885;4;3667;496;26;8;3410;18256;4;3577;490;26;9;1751;9929;4;1852;512;24
29.12.17;14:45:00;1;684;7583;0;2;2423;11375;4;2561;434;29;3;1574;7604;4;1676;545;26;4;572;6835;5;596;222;14;5;3732;22162;4;1993;1653;447;721;28;6;2839;19297;4;1484;1446;628;594;25;7;3575;14594;4;3753;491;26;8;3503;17972;4;3675;488;26;9;1839;9784;4;1945;528;25
29.12.17;14:40:00;1;640;7519;0;2;2515;11173;4;2655;428;29;3;1632;7473;4;1737;546;26;4;614;6787;5;640;233;15;5;3931;21851;4;2103;1741;447;721;28;6;2963;19060;4;1530;1500;628;594;25;7;3670;14296;4;3854;492;26;8;3605;17681;4;3788;491;26;9;1925;9630;4;2038;535;25
29.12.17;14:35:00;1;396;7484;0;2;2585;10964;4;2727;430;30;3;1681;7337;4;1788;549;26;4;656;6736;5;683;225;15;5;4117;21524;4;2225;1819;447;710;29;6;3143;18811;4;1608;1581;625;597;26;7;3844;13992;4;4031;487;26;8;3752;17380;4;3938;485;27;9;2009;9470;4;2123;527;25
29.12.17;14:30:00;1;399;7451;0;2;2669;10748;4;2818;429;30;3;1734;7197;4;1842;544;26;4;701;6681;5;730;224;15;5;4359;21180;4;2361;1929;448;722;29;6;3326;18549;4;1697;1655;621;593;26;7;3960;13672;4;4159;491;27;8;3882;17068;4;4066;484;27;9;2066;9303;4;2181;525;26
29.12.17;14:25:00;1;770;7417;0;2;2710;10526;4;2860;428;30;3;1768;7053;4;1877;544;26;4;764;6623;5;795;227;15;5;4510;20813;4;2438;1991;446;719;29;6;3388;18270;4;1753;1709;621;595;26;7;4032;13343;4;4226;485;27;8;3871;16745;4;4055;486;27;9;2008;9131;4;2131;527;26
29.12.17;14:20:00;1;396;7354;0;2;2765;10300;4;2917;424;31;3;1795;6905;4;1907;547;27;4;784;6559;5;816;227;16;5;4685;20444;4;2549;2084;447;716;29;6;3577;17987;4;1841;1806;618;596;26;7;4035;13007;4;4242;481;27;8;3924;16422;4;4109;476;27;9;2167;8963;4;2293;522;26
29.12.17;14:15:00;1;396;7321;0;2;2828;10070;4;2980;421;31;3;1835;6756;4;1947;543;27;4;791;6494;5;824;222;16;5;4836;20051;4;2625;2143;444;717;29;6;3688;17687;4;1904;1855;617;596;26;7;4204;12669;4;4411;481;27;8;4102;16094;4;4303;481;28;9;2236;8782;4;2367;534;27
29.12.17;14:10:00;1;635;7288;0;2;2870;9836;4;3027;423;31;3;1867;6603;4;1980;539;27;4;808;6428;5;841;216;16;5;4981;19649;4;2702;2210;446;711;29;6;3792;17380;4;1974;1923;617;592;26;7;4297;12319;4;4503;484;27;8;4212;15752;4;4418;481;28;9;2311;8596;4;2451;538;27